Location: �perlecques
(50.8057°N, 2.1521°E)
Time: 13:55:04
(UTC+00:00)

Vanguard 3 - Pass Details

Date: 07 August 2021
Orbit: 509 x 3260 km, 33.4° (Epoch: 27 September)

Event Time Altitude Azimuth Distance (km) Brightness Sun altitude
Rises 21:33:41 0° 270° (W) 6,371 12.2 -16.0°
Reaches altitude 10° 21:38:41 10° 259° (W) 5,685 11.7 -16.5°
Maximum altitude 21:51:50 26° 213° (SSW) 4,947 10.9 -17.6°
Enters shadow 22:02:19 16° 176° (S) 5,619 10.9 -18.5°
